Time,TemperatureF,DewpointF,PressureIn,WindDirection,WindDirectionDegrees,WindSpeedMPH,WindSpeedGustMPH,Humidity,HourlyPrecipIn,Conditions,Clouds,dailyrainin,SolarRadiationWatts/m^2,SoftwareType,DateUTC
2013-05-05 00:52:00,72.0,41.0,-100.00,South,175,4.0,7.0,32,0.00,,,0.00,0.000000,,2013-05-05 07:52:00,
2013-05-05 01:02:00,72.0,41.0,-100.00,South,175,4.0,7.0,32,0.00,,,0.00,0.000000,,2013-05-05 08:02:00,
2013-05-05 01:11:00,72.0,41.0,-100.00,South,175,4.0,7.0,32,0.00,,,0.00,0.000000,,2013-05-05 08:11:00,
2013-05-05 01:21:00,72.0,41.0,-100.00,South,175,4.0,7.0,32,0.00,,,0.00,0.000000,,2013-05-05 08:21:00,
2013-05-05 01:53:00,70.0,33.0,-100.00,SE,137,3.0,8.0,25,0.00,,,0.00,0.000000,,2013-05-05 08:53:00,
2013-05-05 02:01:00,70.0,33.0,-100.00,SE,137,3.0,8.0,25,0.00,,,0.00,0.000000,,2013-05-05 09:01:00,
2013-05-05 02:11:00,70.0,33.0,-100.00,SE,137,3.0,8.0,25,0.00,,,0.00,0.000000,,2013-05-05 09:11:00,
2013-05-05 02:21:00,70.0,33.0,-100.00,SE,137,3.0,8.0,25,0.00,,,0.00,0.000000,,2013-05-05 09:21:00,
2013-05-05 02:52:00,70.0,29.0,-100.00,SSE,162,2.0,7.0,22,0.00,,,0.00,0.000000,,2013-05-05 09:52:00,
2013-05-05 03:02:00,70.0,29.0,-100.00,SSE,162,2.0,7.0,22,0.00,,,0.00,0.000000,,2013-05-05 10:02:00,
2013-05-05 03:12:00,70.0,29.0,-100.00,SSE,162,2.0,7.0,22,0.00,,,0.00,0.000000,,2013-05-05 10:12:00,
2013-05-05 03:22:00,70.0,29.0,-100.00,SSE,162,2.0,7.0,22,0.00,,,0.00,0.000000,,2013-05-05 10:22:00,
2013-05-05 03:53:00,70.0,32.0,-100.00,SSE,148,1.0,6.0,24,0.00,,,0.00,0.000000,,2013-05-05 10:53:00,
2013-05-05 04:01:00,70.0,32.0,-100.00,SSE,148,1.0,6.0,24,0.00,,,0.00,0.000000,,2013-05-05 11:01:00,
2013-05-05 04:11:00,70.0,32.0,-100.00,SSE,148,1.0,6.0,24,0.00,,,0.00,0.000000,,2013-05-05 11:11:00,
2013-05-05 04:21:00,70.0,32.0,-100.00,SSE,148,1.0,6.0,24,0.00,,,0.00,0.000000,,2013-05-05 11:21:00,
2013-05-05 04:52:00,68.0,30.0,-100.00,South,188,2.0,9.0,24,0.00,,,0.00,0.000000,,2013-05-05 11:52:00,
2013-05-05 05:01:00,68.0,30.0,-100.00,South,188,2.0,9.0,24,0.00,,,0.00,0.000000,,2013-05-05 12:01:00,
2013-05-05 05:11:00,68.0,30.0,-100.00,South,188,2.0,9.0,24,0.00,,,0.00,0.000000,,2013-05-05 12:11:00,
2013-05-05 05:21:00,68.0,30.0,-100.00,South,188,2.0,9.0,24,0.00,,,0.00,0.000000,,2013-05-05 12:21:00,
2013-05-05 05:52:00,69.0,34.0,-100.00,South,172,4.0,8.0,27,0.00,,,0.00,0.000000,,2013-05-05 12:52:00,
2013-05-05 06:01:00,69.0,34.0,-100.00,South,172,4.0,8.0,27,0.00,,,0.00,0.000000,,2013-05-05 13:01:00,
2013-05-05 06:11:00,69.0,34.0,-100.00,South,172,4.0,8.0,27,0.00,,,0.00,0.000000,,2013-05-05 13:11:00,
2013-05-05 06:21:00,69.0,34.0,-100.00,South,172,4.0,8.0,27,0.00,,,0.00,0.000000,,2013-05-05 13:21:00,
2013-05-05 06:52:00,67.0,36.0,-100.00,NW,319,1.0,6.0,32,0.00,,,0.00,13.000000,,2013-05-05 13:52:00,
2013-05-05 07:01:00,67.0,36.0,-100.00,NW,319,1.0,6.0,32,0.00,,,0.00,13.000000,,2013-05-05 14:01:00,
2013-05-05 07:11:00,67.0,36.0,-100.00,NW,319,1.0,6.0,32,0.00,,,0.00,13.000000,,2013-05-05 14:11:00,
2013-05-05 07:21:00,67.0,36.0,-100.00,NW,319,1.0,6.0,32,0.00,,,0.00,13.000000,,2013-05-05 14:21:00,
2013-05-05 07:52:00,70.0,32.0,-100.00,South,169,0.0,8.0,24,0.00,,,0.00,96.000000,,2013-05-05 14:52:00,
2013-05-05 08:01:00,70.0,32.0,-100.00,South,169,0.0,8.0,24,0.00,,,0.00,96.000000,,2013-05-05 15:01:00,
2013-05-05 08:11:00,70.0,32.0,-100.00,South,169,0.0,8.0,24,0.00,,,0.00,96.000000,,2013-05-05 15:11:00,
2013-05-05 08:21:00,70.0,32.0,-100.00,South,169,0.0,8.0,24,0.00,,,0.00,96.000000,,2013-05-05 15:21:00,
2013-05-05 08:53:00,76.0,33.0,-100.00,ESE,114,1.0,4.0,21,0.00,,,0.00,249.000000,,2013-05-05 15:53:00,
2013-05-05 09:03:00,76.0,33.0,-100.00,ESE,114,1.0,4.0,21,0.00,,,0.00,249.000000,,2013-05-05 16:03:00,
2013-05-05 09:12:00,76.0,33.0,-100.00,ESE,114,1.0,4.0,21,0.00,,,0.00,249.000000,,2013-05-05 16:12:00,
2013-05-05 09:22:00,76.0,33.0,-100.00,ESE,114,1.0,4.0,21,0.00,,,0.00,249.000000,,2013-05-05 16:22:00,
2013-05-05 09:53:00,81.0,31.0,-100.00,NNW,344,0.0,5.0,16,0.00,,,0.00,603.000000,,2013-05-05 16:53:00,
2013-05-05 10:02:00,81.0,31.0,-100.00,NNW,344,0.0,5.0,16,0.00,,,0.00,603.000000,,2013-05-05 17:02:00,
2013-05-05 10:12:00,81.0,31.0,-100.00,NNW,344,0.0,5.0,16,0.00,,,0.00,603.000000,,2013-05-05 17:12:00,
2013-05-05 10:23:00,81.0,31.0,-100.00,NNW,344,0.0,5.0,16,0.00,,,0.00,603.000000,,2013-05-05 17:23:00,
2013-05-05 10:52:00,84.0,28.0,-100.00,SSE,147,2.0,10.0,13,0.00,,,0.00,897.000000,,2013-05-05 17:52:00,
2013-05-05 11:01:00,84.0,28.0,-100.00,SSE,147,2.0,10.0,13,0.00,,,0.00,897.000000,,2013-05-05 18:01:00,
2013-05-05 11:11:00,84.0,28.0,-100.00,SSE,147,2.0,10.0,13,0.00,,,0.00,897.000000,,2013-05-05 18:11:00,
2013-05-05 11:21:00,84.0,28.0,-100.00,SSE,147,2.0,10.0,13,0.00,,,0.00,897.000000,,2013-05-05 18:21:00,
2013-05-05 11:52:00,85.0,29.0,-100.00,South,188,2.0,7.0,13,0.00,,,0.00,556.000000,,2013-05-05 18:52:00,
2013-05-05 12:01:00,85.0,29.0,-100.00,South,188,2.0,7.0,13,0.00,,,0.00,556.000000,,2013-05-05 19:01:00,
2013-05-05 12:11:00,85.0,29.0,-100.00,South,188,2.0,7.0,13,0.00,,,0.00,556.000000,,2013-05-05 19:11:00,
2013-05-05 12:21:00,85.0,29.0,-100.00,South,188,2.0,7.0,13,0.00,,,0.00,556.000000,,2013-05-05 19:21:00,
2013-05-05 12:52:00,88.0,29.0,-100.00,SW,225,1.0,10.0,12,0.00,,,0.00,767.000000,,2013-05-05 19:52:00,
2013-05-05 13:01:00,88.0,29.0,-100.00,SW,225,1.0,10.0,12,0.00,,,0.00,767.000000,,2013-05-05 20:01:00,
2013-05-05 13:11:00,88.0,29.0,-100.00,SW,225,1.0,10.0,12,0.00,,,0.00,767.000000,,2013-05-05 20:11:00,
2013-05-05 13:21:00,88.0,29.0,-100.00,SW,225,1.0,10.0,12,0.00,,,0.00,767.000000,,2013-05-05 20:21:00,
2013-05-05 13:52:00,91.0,29.0,-100.00,SSW,213,7.0,17.0,11,0.00,,,0.00,1279.000000,,2013-05-05 20:52:00,
2013-05-05 14:01:00,91.0,29.0,-100.00,SSW,213,7.0,17.0,11,0.00,,,0.00,1279.000000,,2013-05-05 21:01:00,
2013-05-05 14:11:00,91.0,29.0,-100.00,SSW,213,7.0,17.0,11,0.00,,,0.00,1279.000000,,2013-05-05 21:11:00,
2013-05-05 14:21:00,91.0,29.0,-100.00,SSW,213,7.0,17.0,11,0.00,,,0.00,1279.000000,,2013-05-05 21:21:00,
2013-05-05 14:53:00,90.0,31.0,-100.00,West,279,7.0,18.0,12,0.00,,,0.00,1152.000000,,2013-05-05 21:53:00,
2013-05-05 15:02:00,90.0,31.0,-100.00,West,279,7.0,18.0,12,0.00,,,0.00,1152.000000,,2013-05-05 22:02:00,
2013-05-05 15:12:00,90.0,31.0,-100.00,West,279,7.0,18.0,12,0.00,,,0.00,1152.000000,,2013-05-05 22:12:00,
2013-05-05 15:22:00,90.0,31.0,-100.00,West,279,7.0,18.0,12,0.00,,,0.00,1152.000000,,2013-05-05 22:22:00,
2013-05-05 15:52:00,89.0,35.0,-100.00,SW,218,11.0,20.0,15,0.00,,,0.00,991.000000,,2013-05-05 22:52:00,
2013-05-05 16:02:00,89.0,35.0,-100.00,SW,218,11.0,20.0,15,0.00,,,0.00,991.000000,,2013-05-05 23:02:00,
2013-05-05 16:11:00,89.0,35.0,-100.00,SW,218,11.0,20.0,15,0.00,,,0.00,991.000000,,2013-05-05 23:11:00,
2013-05-05 16:21:00,89.0,35.0,-100.00,SW,218,11.0,20.0,15,0.00,,,0.00,991.000000,,2013-05-05 23:21:00,
2013-05-05 16:52:00,88.0,35.0,-100.00,SSW,197,7.0,19.0,15,0.00,,,0.00,604.000000,,2013-05-05 23:52:00,
2013-05-05 17:01:00,88.0,35.0,-100.00,SSW,197,7.0,19.0,15,0.00,,,0.00,604.000000,,2013-05-06 00:01:00,
2013-05-05 17:11:00,88.0,35.0,-100.00,SSW,197,7.0,19.0,15,0.00,,,0.00,604.000000,,2013-05-06 00:11:00,
2013-05-05 17:21:00,88.0,35.0,-100.00,SSW,197,7.0,19.0,15,0.00,,,0.00,604.000000,,2013-05-06 00:21:00,
2013-05-05 17:51:00,88.0,35.0,-100.00,SSW,213,9.0,15.0,15,0.00,,,0.00,202.000000,,2013-05-06 00:51:00,
2013-05-05 18:01:00,88.0,35.0,-100.00,SSW,213,9.0,15.0,15,0.00,,,0.00,202.000000,,2013-05-06 01:01:00,
2013-05-05 18:11:00,88.0,35.0,-100.00,SSW,213,9.0,15.0,15,0.00,,,0.00,202.000000,,2013-05-06 01:11:00,
2013-05-05 18:21:00,88.0,35.0,-100.00,SSW,213,9.0,15.0,15,0.00,,,0.00,202.000000,,2013-05-06 01:21:00,
2013-05-05 18:52:00,86.0,39.0,-100.00,WSW,246,12.0,20.0,19,0.00,,,0.00,167.000000,,2013-05-06 01:52:00,
2013-05-05 19:01:00,86.0,39.0,-100.00,WSW,246,12.0,20.0,19,0.00,,,0.00,167.000000,,2013-05-06 02:01:00,
2013-05-05 19:11:00,86.0,39.0,-100.00,WSW,246,12.0,20.0,19,0.00,,,0.00,167.000000,,2013-05-06 02:11:00,
2013-05-05 19:21:00,86.0,39.0,-100.00,WSW,246,12.0,20.0,19,0.00,,,0.00,167.000000,,2013-05-06 02:21:00,
2013-05-05 19:52:00,79.0,38.0,-100.00,West,278,16.0,26.0,23,0.00,,,0.00,79.000000,,2013-05-06 02:52:00,
2013-05-05 20:01:00,79.0,38.0,-100.00,West,278,16.0,26.0,23,0.00,,,0.00,79.000000,,2013-05-06 03:01:00,
2013-05-05 20:11:00,79.0,38.0,-100.00,West,278,16.0,26.0,23,0.00,,,0.00,79.000000,,2013-05-06 03:11:00,
2013-05-05 20:22:00,79.0,38.0,-100.00,West,278,16.0,26.0,23,0.00,,,0.00,79.000000,,2013-05-06 03:22:00,
2013-05-05 20:52:00,76.0,40.0,-100.00,WNW,293,18.0,36.0,27,0.00,,,0.00,0.000000,,2013-05-06 03:52:00,
2013-05-05 21:02:00,76.0,40.0,-100.00,WNW,293,18.0,36.0,27,0.00,,,0.00,0.000000,,2013-05-06 04:02:00,
2013-05-05 21:12:00,76.0,40.0,-100.00,WNW,293,18.0,36.0,27,0.00,,,0.00,0.000000,,2013-05-06 04:12:00,
2013-05-05 21:23:00,76.0,40.0,-100.00,WNW,293,18.0,36.0,27,0.00,,,0.00,0.000000,,2013-05-06 04:23:00,
2013-05-05 21:53:00,72.0,38.0,-100.00,WNW,298,15.0,30.0,29,0.00,,,0.00,0.000000,,2013-05-06 04:53:00,
2013-05-05 22:02:00,72.0,38.0,-100.00,WNW,298,15.0,30.0,29,0.00,,,0.00,0.000000,,2013-05-06 05:02:00,
2013-05-05 22:12:00,72.0,38.0,-100.00,WNW,298,15.0,30.0,29,0.00,,,0.00,0.000000,,2013-05-06 05:12:00,
2013-05-05 22:22:00,72.0,38.0,-100.00,WNW,298,15.0,30.0,29,0.00,,,0.00,0.000000,,2013-05-06 05:22:00,
2013-05-05 22:52:00,72.0,41.0,-100.00,WNW,297,9.0,24.0,32,0.00,,,0.00,0.000000,,2013-05-06 05:52:00,
2013-05-05 23:02:00,72.0,41.0,-100.00,WNW,297,9.0,24.0,32,0.00,,,0.00,0.000000,,2013-05-06 06:02:00,
2013-05-05 23:12:00,72.0,41.0,-100.00,WNW,297,9.0,24.0,32,0.00,,,0.00,0.000000,,2013-05-06 06:12:00,
2013-05-05 23:21:00,72.0,41.0,-100.00,WNW,297,9.0,24.0,32,0.00,,,0.00,0.000000,,2013-05-06 06:21:00,
2013-05-05 23:52:00,69.0,41.0,-100.00,West,265,10.0,17.0,36,0.00,,,0.00,0.000000,,2013-05-06 06:52:00,